TimeCDT,TemperatureF,Dew PointF,Humidity,Sea Level PressureIn,VisibilityMPH,Wind Direction,Wind SpeedMPH,Gust SpeedMPH,PrecipitationIn,Events,Conditions,WindDirDegrees,DateUTC
12:53 AM,48.0,46.9,96,29.92,4.0,WNW,3.5,-,0.00,,Overcast,300,2013-03-31 05:53:00
1:21 AM,48.2,46.4,93,29.91,4.0,WNW,3.5,-,N/A,,Overcast,290,2013-03-31 06:21:00
1:36 AM,46.4,46.4,100,29.90,4.0,West,3.5,-,N/A,,Overcast,280,2013-03-31 06:36:00
1:53 AM,48.0,46.0,93,29.90,4.0,West,3.5,-,N/A,,Overcast,270,2013-03-31 06:53:00
2:53 AM,46.9,46.0,97,29.89,4.0,West,3.5,-,N/A,,Overcast,280,2013-03-31 07:53:00
3:53 AM,46.9,46.0,97,29.87,4.0,Calm,Calm,-,N/A,,Overcast,0,2013-03-31 08:53:00
4:29 AM,46.4,46.4,100,29.87,3.0,WSW,3.5,-,N/A,,Overcast,250,2013-03-31 09:29:00
4:53 AM,46.9,46.0,97,29.86,3.0,Calm,Calm,-,N/A,,Overcast,0,2013-03-31 09:53:00
5:00 AM,46.4,46.4,100,29.86,4.0,Calm,Calm,-,N/A,,Overcast,0,2013-03-31 10:00:00
5:28 AM,46.4,46.4,100,29.86,2.0,Calm,Calm,-,N/A,,Overcast,0,2013-03-31 10:28:00
5:35 AM,46.4,46.4,100,29.85,1.8,Calm,Calm,-,N/A,,Overcast,0,2013-03-31 10:35:00
5:53 AM,46.9,46.0,97,29.87,1.8,Calm,Calm,-,N/A,,Overcast,0,2013-03-31 10:53:00
6:53 AM,46.9,46.9,100,29.87,1.5,SW,3.5,-,N/A,,Overcast,230,2013-03-31 11:53:00
7:34 AM,48.2,46.4,93,29.88,0.8,WSW,4.6,-,N/A,,Overcast,250,2013-03-31 12:34:00
7:53 AM,48.0,48.0,100,29.88,0.8,WSW,4.6,-,N/A,,Overcast,250,2013-03-31 12:53:00
8:04 AM,48.2,48.2,100,29.88,1.0,West,5.8,-,N/A,,Overcast,270,2013-03-31 13:04:00
8:53 AM,48.9,46.9,93,29.90,2.0,WNW,10.4,-,N/A,,Overcast,290,2013-03-31 13:53:00
9:53 AM,50.0,46.9,89,29.91,2.5,WNW,9.2,-,N/A,,Overcast,300,2013-03-31 14:53:00
10:25 AM,50.0,46.4,87,29.91,3.0,NW,6.9,-,N/A,,Overcast,310,2013-03-31 15:25:00
10:36 AM,50.0,46.4,87,29.91,3.0,West,4.6,-,0.00,Rain,Light Rain,280,2013-03-31 15:36:00
10:53 AM,51.1,46.9,86,29.92,3.0,West,4.6,-,0.00,,Overcast,280,2013-03-31 15:53:00
11:35 AM,53.6,46.4,77,29.91,4.0,WSW,6.9,-,N/A,,Haze,250,2013-03-31 16:35:00
11:53 AM,54.0,48.0,80,29.90,4.0,West,6.9,-,N/A,,Haze,280,2013-03-31 16:53:00
12:35 PM,55.4,46.4,72,29.88,5.0,WNW,6.9,-,N/A,,Haze,300,2013-03-31 17:35:00
12:53 PM,57.0,46.9,69,29.87,5.0,NW,6.9,-,N/A,,Haze,310,2013-03-31 17:53:00
1:04 PM,57.2,46.4,67,29.87,5.0,WNW,8.1,-,N/A,,Haze,290,2013-03-31 18:04:00
1:43 PM,57.2,46.4,67,29.87,6.0,WNW,5.8,-,N/A,,Haze,290,2013-03-31 18:43:00
1:53 PM,59.0,46.0,62,29.87,6.0,West,12.7,19.6,N/A,,Haze,260,2013-03-31 18:53:00
2:53 PM,60.1,46.0,60,29.86,5.0,West,8.1,-,N/A,,Haze,280,2013-03-31 19:53:00
3:53 PM,62.1,45.0,53,29.85,8.0,West,13.8,20.7,N/A,,Clear,280,2013-03-31 20:53:00
4:53 PM,63.0,43.0,48,29.85,9.0,West,12.7,20.7,N/A,,Clear,270,2013-03-31 21:53:00
5:53 PM,62.1,42.1,48,29.85,10.0,West,15.0,-,N/A,,Scattered Clouds,260,2013-03-31 22:53:00
6:53 PM,59.0,37.9,46,29.84,10.0,West,10.4,-,N/A,,Mostly Cloudy,260,2013-03-31 23:53:00
7:53 PM,55.0,41.0,59,29.86,10.0,WSW,6.9,-,N/A,,Overcast,240,2013-04-01 00:53:00
8:53 PM,55.0,44.1,67,29.87,10.0,WNW,6.9,-,0.00,,Overcast,290,2013-04-01 01:53:00
9:53 PM,53.1,42.1,66,29.87,10.0,West,4.6,-,N/A,,Scattered Clouds,270,2013-04-01 02:53:00
10:53 PM,52.0,43.0,71,29.88,10.0,NW,10.4,-,N/A,,Scattered Clouds,310,2013-04-01 03:53:00
11:53 PM,51.1,39.0,63,29.90,10.0,NNW,11.5,-,N/A,,Scattered Clouds,330,2013-04-01 04:53:00